Location: Dvur Kralove nad Labem
(50.4330°N, 15.8170°E)
Time: 01:55:33
(UTC+02:00)

ISS - Pass Details

Date: 28 August 2022
Orbit: 414 x 417 km, 51.6° (Epoch: 24 September)

Event Time Altitude Azimuth Distance (km) Brightness Sun altitude
Exits shadow 05:26:49 - 243° (WSW) 1,608 -1.5 -6.5°
Reaches altitude 10° 05:27:05 10° 243° (WSW) 1,498 -1.6 -6.5°
Maximum altitude 05:30:26 69° 160° (SSE) 453 -3.6 -6.0°
Drops below altitude 10° 05:33:47 10° 76° (ENE) 1,500 0.8 -5.5°
Sets 05:35:53 0° 74° (ENE) 2,364 2.7 -5.2°
